Location: Unspecified
(52.4292°N, 19.3359°E)
Time: 00:39:31
(UTC+02:00)

Altair - Pass Details

Date: 21 May 2024
Orbit: 1502 x 1682 km, 47.2° (Epoch: 19 June)

Event Time Altitude Azimuth Distance (km) Brightness Sun altitude
Rises 16:47:58 0° 284° (WNW) 4,929 11.1 32.9°
Reaches altitude 10° 16:51:22 10° 278° (W) 3,946 11.0 32.4°
Maximum altitude 17:00:31 41° 213° (SSW) 2,288 9.3 31.0°
Drops below altitude 10° 17:09:36 10° 149° (SSE) 3,899 9.5 29.6°
Sets 17:12:57 0° 142° (SE) 4,865 9.8 29.1°
